Location: Alphaba - Cockrum - Ingrams Mill Volunteer Fire Department Station 2
(34.7915°N, 89.7598°W)
Time: 09:51:46
(UTC+00:00)

Cosmos 1898 Rocket - Pass Details

Date: 11 December 2025
Orbit: 749 x 779 km, 74.0° (Epoch: 25 January)

Event Time Altitude Azimuth Distance (km) Brightness Sun altitude
Rises 23:18:42 0° 168° (SSE) 3,179 6.9 -6.4°
Reaches altitude 10° 23:21:19 10° 157° (SSE) 2,258 6.0 -6.9°
Maximum altitude 23:25:38 28° 99° (E) 1,379 4.4 -7.8°
Drops below altitude 10° 23:29:58 10° 42° (NE) 2,273 5.4 -8.6°
Enters shadow 23:30:51 - 37° (NE) 2,570 5.7 -8.7°
